Time,TemperatureF,DewpointF,PressureIn,WindDirection,WindDirectionDegrees,WindSpeedMPH,WindSpeedGustMPH,Humidity,HourlyPrecipIn,Conditions,Clouds,dailyrainin,SoftwareType,DateUTC
2013-03-06 00:00:00,55.2,30.7,30.32,NE,44,9.0,19.0,39,0.00,,---,0.00,VWS V14.01,2013-03-06 06:00:00,
2013-03-06 00:05:00,55.2,30.7,30.32,North,356,6.0,14.0,39,0.00,,---,0.00,VWS V14.01,2013-03-06 06:05:00,
2013-03-06 00:10:00,55.1,31.2,30.32,North,11,7.0,17.0,40,0.00,,---,0.00,VWS V14.01,2013-03-06 06:10:00,
2013-03-06 00:15:00,55.0,30.5,30.32,North,353,10.0,17.0,39,0.00,,---,0.00,VWS V14.01,2013-03-06 06:15:00,
2013-03-06 00:20:00,54.8,30.3,30.32,NNE,23,14.0,17.0,39,0.00,,---,0.00,VWS V14.01,2013-03-06 06:20:00,
2013-03-06 00:25:00,54.8,29.0,30.32,NNE,13,11.0,19.0,37,0.00,,---,0.00,VWS V14.01,2013-03-06 06:25:00,
2013-03-06 00:30:00,54.8,29.7,30.33,North,354,20.0,20.0,38,0.00,,---,0.00,VWS V14.01,2013-03-06 06:30:00,
2013-03-06 00:35:00,54.8,29.7,30.33,North,8,13.0,21.0,38,0.00,,---,0.00,VWS V14.01,2013-03-06 06:35:00,
2013-03-06 00:40:00,54.8,30.3,30.33,NE,37,13.0,21.0,39,0.00,,---,0.00,VWS V14.01,2013-03-06 06:40:00,
2013-03-06 00:45:00,54.6,30.2,30.33,NW,323,9.0,21.0,39,0.00,,---,0.00,VWS V14.01,2013-03-06 06:45:00,
2013-03-06 00:50:00,54.5,29.4,30.33,NNE,17,11.0,21.0,38,0.00,,---,0.00,VWS V14.01,2013-03-06 06:50:00,
2013-03-06 00:55:00,54.2,29.8,30.33,NW,326,7.0,21.0,39,0.00,,---,0.00,VWS V14.01,2013-03-06 06:55:00,
2013-03-06 01:00:00,54.1,29.7,30.32,North,360,14.0,21.0,39,0.00,,---,0.00,VWS V14.01,2013-03-06 07:00:00,
2013-03-06 01:05:00,53.8,30.7,30.32,NE,39,14.0,14.0,41,0.00,,---,0.00,VWS V14.01,2013-03-06 07:05:00,
2013-03-06 01:10:00,53.7,30.6,30.32,NNE,19,21.0,21.0,41,0.00,,---,0.00,VWS V14.01,2013-03-06 07:10:00,
2013-03-06 01:15:00,53.8,30.1,30.32,NNE,29,15.0,21.0,40,0.00,,---,0.00,VWS V14.01,2013-03-06 07:15:00,
2013-03-06 01:20:00,53.6,31.1,30.33,North,359,9.0,21.0,42,0.00,,---,0.00,VWS V14.01,2013-03-06 07:20:00,
2013-03-06 01:25:00,53.6,30.5,30.33,NNE,12,7.0,21.0,41,0.00,,---,0.00,VWS V14.01,2013-03-06 07:25:00,
2013-03-06 01:30:00,53.6,29.9,30.33,NNE,22,14.0,21.0,40,0.00,,---,0.00,VWS V14.01,2013-03-06 07:30:00,
2013-03-06 01:35:00,53.5,30.4,30.33,NNE,16,14.0,21.0,41,0.00,,---,0.00,VWS V14.01,2013-03-06 07:35:00,
2013-03-06 01:40:00,53.6,29.9,30.33,NNE,32,14.0,21.0,40,0.00,,---,0.00,VWS V14.01,2013-03-06 07:40:00,
2013-03-06 01:45:00,53.5,29.8,30.33,NNE,16,15.0,22.0,40,0.00,,---,0.00,VWS V14.01,2013-03-06 07:45:00,
2013-03-06 01:50:00,53.2,30.7,30.33,NE,36,12.0,22.0,42,0.00,,---,0.00,VWS V14.01,2013-03-06 07:50:00,
2013-03-06 01:55:00,53.0,30.0,30.33,NE,42,10.0,22.0,41,0.00,,---,0.00,VWS V14.01,2013-03-06 07:55:00,
2013-03-06 02:00:00,52.8,29.2,30.33,North,356,12.0,22.0,40,0.00,,---,0.00,VWS V14.01,2013-03-06 08:00:00,
2013-03-06 02:05:00,52.8,29.8,30.32,NNE,19,17.0,23.0,41,0.00,,---,0.00,VWS V14.01,2013-03-06 08:05:00,
2013-03-06 02:10:00,52.6,30.2,30.32,NNE,32,9.0,23.0,42,0.00,,---,0.00,VWS V14.01,2013-03-06 08:10:00,
2013-03-06 02:15:00,52.5,28.3,30.32,North,4,18.0,24.0,39,0.00,,---,0.00,VWS V14.01,2013-03-06 08:15:00,
2013-03-06 02:20:00,52.5,30.1,30.32,NE,53,13.0,24.0,42,0.00,,---,0.00,VWS V14.01,2013-03-06 08:20:00,
2013-03-06 02:25:00,52.3,29.9,30.32,NNE,30,17.0,24.0,42,0.00,,---,0.00,VWS V14.01,2013-03-06 08:25:00,
2013-03-06 02:30:00,52.2,29.8,30.32,North,360,15.0,24.0,42,0.00,,---,0.00,VWS V14.01,2013-03-06 08:30:00,
2013-03-06 02:35:00,52.2,30.4,30.32,East,79,10.0,24.0,43,0.00,,---,0.00,VWS V14.01,2013-03-06 08:35:00,
2013-03-06 02:40:00,52.0,30.8,30.32,NE,42,13.0,24.0,44,0.00,,---,0.00,VWS V14.01,2013-03-06 08:40:00,
2013-03-06 02:45:00,51.9,30.1,30.32,NE,36,14.0,24.0,43,0.00,,---,0.00,VWS V14.01,2013-03-06 08:45:00,
2013-03-06 02:50:00,51.8,30.6,30.32,NNE,27,15.0,24.0,44,0.00,,---,0.00,VWS V14.01,2013-03-06 08:50:00,
2013-03-06 02:55:00,51.9,30.1,30.32,NNE,27,10.0,24.0,43,0.00,,---,0.00,VWS V14.01,2013-03-06 08:55:00,
2013-03-06 03:00:00,51.7,29.9,30.31,North,349,7.0,24.0,43,0.00,,---,0.00,VWS V14.01,2013-03-06 09:00:00,
2013-03-06 03:05:00,51.6,29.9,30.31,NE,49,18.0,21.0,43,0.00,,---,0.00,VWS V14.01,2013-03-06 09:05:00,
2013-03-06 03:10:00,51.6,30.4,30.32,NE,40,14.0,21.0,44,0.00,,---,0.00,VWS V14.01,2013-03-06 09:10:00,
2013-03-06 03:15:00,51.5,29.8,30.32,NE,37,20.0,21.0,43,0.00,,---,0.00,VWS V14.01,2013-03-06 09:15:00,
2013-03-06 03:20:00,51.5,29.8,30.31,NNE,27,17.0,22.0,43,0.00,,---,0.00,VWS V14.01,2013-03-06 09:20:00,
2013-03-06 03:25:00,51.4,30.8,30.32,NNE,30,13.0,22.0,45,0.00,,---,0.00,VWS V14.01,2013-03-06 09:25:00,
2013-03-06 03:30:00,51.3,31.2,30.32,North,6,10.0,22.0,46,0.00,,---,0.00,VWS V14.01,2013-03-06 09:30:00,
2013-03-06 03:35:00,51.3,30.7,30.32,NNE,25,18.0,22.0,45,0.00,,---,0.00,VWS V14.01,2013-03-06 09:35:00,
2013-03-06 03:40:00,51.4,30.8,30.31,NNE,13,16.0,23.0,45,0.00,,---,0.00,VWS V14.01,2013-03-06 09:40:00,
2013-03-06 03:45:00,51.5,31.4,30.32,NE,38,12.0,23.0,46,0.00,,---,0.00,VWS V14.01,2013-03-06 09:45:00,
2013-03-06 03:50:00,51.4,31.3,30.32,NNE,31,18.0,23.0,46,0.00,,---,0.00,VWS V14.01,2013-03-06 09:50:00,
2013-03-06 03:55:00,51.3,31.8,30.32,NE,44,20.0,23.0,47,0.00,,---,0.00,VWS V14.01,2013-03-06 09:55:00,
2013-03-06 04:00:00,51.2,30.0,30.32,NE,38,19.0,23.0,44,0.00,,---,0.00,VWS V14.01,2013-03-06 10:00:00,
2013-03-06 04:05:00,51.1,30.5,30.32,NNE,27,17.0,18.0,45,0.00,,---,0.00,VWS V14.01,2013-03-06 10:05:00,
2013-03-06 04:10:00,51.0,31.0,30.32,NNE,13,10.0,21.0,46,0.00,,---,0.00,VWS V14.01,2013-03-06 10:10:00,
2013-03-06 04:15:00,50.8,30.8,30.33,NNE,23,10.0,21.0,46,0.00,,---,0.00,VWS V14.01,2013-03-06 10:15:00,
2013-03-06 04:20:00,50.7,31.2,30.33,NNE,23,10.0,21.0,47,0.00,,---,0.00,VWS V14.01,2013-03-06 10:20:00,
2013-03-06 04:25:00,50.5,31.0,30.33,North,358,17.0,21.0,47,0.00,,---,0.00,VWS V14.01,2013-03-06 10:25:00,
2013-03-06 04:30:00,50.5,31.6,30.33,NNE,25,11.0,21.0,48,0.00,,---,0.00,VWS V14.01,2013-03-06 10:30:00,
2013-03-06 04:35:00,50.3,31.4,30.33,North,9,12.0,21.0,48,0.00,,---,0.00,VWS V14.01,2013-03-06 10:35:00,
2013-03-06 04:40:00,50.2,30.8,30.34,NNE,30,11.0,21.0,47,0.00,,---,0.00,VWS V14.01,2013-03-06 10:40:00,
2013-03-06 04:45:00,50.0,31.6,30.34,NE,41,14.0,21.0,49,0.00,,---,0.00,VWS V14.01,2013-03-06 10:45:00,
2013-03-06 04:50:00,50.0,31.1,30.34,NNE,30,11.0,21.0,48,0.00,,---,0.00,VWS V14.01,2013-03-06 10:50:00,
2013-03-06 04:55:00,49.8,31.4,30.34,NE,39,14.0,21.0,49,0.00,,---,0.00,VWS V14.01,2013-03-06 10:55:00,
2013-03-06 05:00:00,49.5,30.6,30.34,NNE,27,12.0,21.0,48,0.00,,---,0.00,VWS V14.01,2013-03-06 11:00:00,
2013-03-06 05:05:00,49.3,31.0,30.34,NNE,29,10.0,15.0,49,0.00,,---,0.00,VWS V14.01,2013-03-06 11:05:00,
2013-03-06 05:10:00,49.3,30.5,30.35,NNE,19,7.0,15.0,48,0.00,,---,0.00,VWS V14.01,2013-03-06 11:10:00,
2013-03-06 05:15:00,49.2,31.4,30.35,NNE,32,11.0,15.0,50,0.00,,---,0.00,VWS V14.01,2013-03-06 11:15:00,
2013-03-06 05:20:00,49.3,31.0,30.35,NNE,25,12.0,16.0,49,0.00,,---,0.00,VWS V14.01,2013-03-06 11:20:00,
2013-03-06 05:25:00,49.2,30.4,30.35,NE,43,11.0,17.0,48,0.00,,---,0.00,VWS V14.01,2013-03-06 11:25:00,
2013-03-06 05:30:00,49.1,31.3,30.35,NE,36,13.0,17.0,50,0.00,,---,0.00,VWS V14.01,2013-03-06 11:30:00,
2013-03-06 05:35:00,49.1,30.8,30.35,NE,45,6.0,19.0,49,0.00,,---,0.00,VWS V14.01,2013-03-06 11:35:00,
2013-03-06 05:40:00,49.0,30.7,30.36,NNE,32,18.0,19.0,49,0.00,,---,0.00,VWS V14.01,2013-03-06 11:40:00,
2013-03-06 05:45:00,49.1,30.8,30.36,NNE,33,10.0,19.0,49,0.00,,---,0.00,VWS V14.01,2013-03-06 11:45:00,
2013-03-06 05:50:00,48.9,31.1,30.35,NNE,30,13.0,19.0,50,0.00,,---,0.00,VWS V14.01,2013-03-06 11:50:00,
2013-03-06 05:55:00,48.8,31.5,30.35,NNE,25,10.0,19.0,51,0.00,,---,0.00,VWS V14.01,2013-03-06 11:55:00,
2013-03-06 06:00:00,48.7,31.4,30.35,NNE,12,13.0,19.0,51,0.00,,---,0.00,VWS V14.01,2013-03-06 12:00:00,
2013-03-06 06:05:00,48.5,30.7,30.35,NE,34,11.0,15.0,50,0.00,,---,0.00,VWS V14.01,2013-03-06 12:05:00,
2013-03-06 06:10:00,48.6,31.8,30.35,NNE,23,11.0,18.0,52,0.00,,---,0.00,VWS V14.01,2013-03-06 12:10:00,
2013-03-06 06:15:00,48.5,31.7,30.36,NE,34,10.0,18.0,52,0.00,,---,0.00,VWS V14.01,2013-03-06 12:15:00,
2013-03-06 06:20:00,48.4,31.6,30.36,NNE,26,16.0,18.0,52,0.00,,---,0.00,VWS V14.01,2013-03-06 12:20:00,
2013-03-06 06:25:00,48.5,31.2,30.36,NE,34,6.0,18.0,51,0.00,,---,0.00,VWS V14.01,2013-03-06 12:25:00,
2013-03-06 06:30:00,48.4,31.6,30.37,NE,47,8.0,18.0,52,0.00,,---,0.00,VWS V14.01,2013-03-06 12:30:00,
2013-03-06 06:35:00,48.5,31.7,30.37,NNE,25,9.0,18.0,52,0.00,,---,0.00,VWS V14.01,2013-03-06 12:35:00,
2013-03-06 06:40:00,48.4,32.5,30.37,NNE,21,8.0,18.0,54,0.00,,---,0.00,VWS V14.01,2013-03-06 12:40:00,
2013-03-06 06:45:00,48.3,31.5,30.38,NNE,25,12.0,18.0,52,0.00,,---,0.00,VWS V14.01,2013-03-06 12:45:00,
2013-03-06 06:50:00,48.3,32.0,30.38,NE,39,13.0,18.0,53,0.00,,---,0.00,VWS V14.01,2013-03-06 12:50:00,
2013-03-06 06:55:00,48.3,32.0,30.39,NNE,33,8.0,18.0,53,0.00,,---,0.00,VWS V14.01,2013-03-06 12:55:00,
2013-03-06 07:00:00,48.4,32.5,30.39,NNE,19,6.0,18.0,54,0.00,,---,0.00,VWS V14.01,2013-03-06 13:00:00,
2013-03-06 07:05:00,48.3,32.9,30.39,NNE,25,6.0,10.0,55,0.00,,---,0.00,VWS V14.01,2013-03-06 13:05:00,
2013-03-06 07:10:00,48.3,32.0,30.40,NE,37,6.0,13.0,53,0.00,,---,0.00,VWS V14.01,2013-03-06 13:10:00,
2013-03-06 07:15:00,48.4,32.5,30.40,NNE,19,8.0,16.0,54,0.00,,---,0.00,VWS V14.01,2013-03-06 13:15:00,
2013-03-06 07:20:00,48.5,32.6,30.40,NNE,23,12.0,16.0,54,0.00,,---,0.00,VWS V14.01,2013-03-06 13:20:00,
2013-03-06 07:25:00,48.6,32.3,30.40,NNE,25,8.0,16.0,53,0.00,,---,0.00,VWS V14.01,2013-03-06 13:25:00,
2013-03-06 07:30:00,48.8,32.4,30.40,North,349,9.0,16.0,53,0.00,,---,0.00,VWS V14.01,2013-03-06 13:30:00,
2013-03-06 07:35:00,48.9,32.5,30.40,NE,40,6.0,16.0,53,0.00,,---,0.00,VWS V14.01,2013-03-06 13:35:00,
2013-03-06 07:40:00,49.0,32.2,30.40,NNE,27,7.0,17.0,52,0.00,,---,0.00,VWS V14.01,2013-03-06 13:40:00,
2013-03-06 07:45:00,49.1,31.8,30.40,NNE,33,11.0,17.0,51,0.00,,---,0.00,VWS V14.01,2013-03-06 13:45:00,
2013-03-06 07:50:00,49.3,32.0,30.41,NNE,15,9.0,17.0,51,0.00,,---,0.00,VWS V14.01,2013-03-06 13:50:00,
2013-03-06 07:55:00,49.3,32.0,30.41,NNE,29,9.0,17.0,51,0.00,,---,0.00,VWS V14.01,2013-03-06 13:55:00,
2013-03-06 08:00:00,49.5,32.1,30.41,NE,47,13.0,17.0,51,0.00,,---,0.00,VWS V14.01,2013-03-06 14:00:00,
2013-03-06 08:05:00,49.4,31.1,30.41,NNE,32,9.0,18.0,49,0.00,,---,0.00,VWS V14.01,2013-03-06 14:05:00,
2013-03-06 08:10:00,49.6,31.7,30.41,NNE,27,12.0,18.0,50,0.00,,---,0.00,VWS V14.01,2013-03-06 14:10:00,
2013-03-06 08:15:00,49.6,31.7,30.41,NNE,26,12.0,18.0,50,0.00,,---,0.00,VWS V14.01,2013-03-06 14:15:00,
2013-03-06 08:20:00,49.6,31.7,30.41,NNE,27,10.0,18.0,50,0.00,,---,0.00,VWS V14.01,2013-03-06 14:20:00,
2013-03-06 08:25:00,49.8,31.9,30.41,NNE,32,10.0,18.0,50,0.00,,---,0.00,VWS V14.01,2013-03-06 14:25:00,
2013-03-06 08:30:00,49.9,32.0,30.41,North,352,7.0,18.0,50,0.00,,---,0.00,VWS V14.01,2013-03-06 14:30:00,
2013-03-06 08:35:00,50.0,33.1,30.42,NNE,21,10.0,18.0,52,0.00,,---,0.00,VWS V14.01,2013-03-06 14:35:00,
2013-03-06 08:40:00,50.1,32.7,30.42,NNE,33,11.0,18.0,51,0.00,,---,0.00,VWS V14.01,2013-03-06 14:40:00,
2013-03-06 08:45:00,50.1,33.2,30.43,North,356,6.0,18.0,52,0.00,,---,0.00,VWS V14.01,2013-03-06 14:45:00,
2013-03-06 08:50:00,50.1,32.2,30.43,NE,37,13.0,18.0,50,0.00,,---,0.00,VWS V14.01,2013-03-06 14:50:00,
2013-03-06 08:55:00,50.3,31.4,30.43,NNE,32,13.0,18.0,48,0.00,,---,0.00,VWS V14.01,2013-03-06 14:55:00,
2013-03-06 09:00:00,50.8,32.3,30.44,NNE,19,12.0,18.0,49,0.00,,---,0.00,VWS V14.01,2013-03-06 15:00:00,
2013-03-06 09:05:00,50.6,31.6,30.43,North,11,11.0,16.0,48,0.00,,---,0.00,VWS V14.01,2013-03-06 15:05:00,
2013-03-06 09:10:00,50.9,31.9,30.43,North,4,11.0,16.0,48,0.00,,---,0.00,VWS V14.01,2013-03-06 15:10:00,
2013-03-06 09:15:00,51.0,30.4,30.43,NE,44,13.0,19.0,45,0.00,,---,0.00,VWS V14.01,2013-03-06 15:15:00,
2013-03-06 09:20:00,51.0,31.0,30.44,ENE,76,10.0,19.0,46,0.00,,---,0.00,VWS V14.01,2013-03-06 15:20:00,
2013-03-06 09:25:00,50.8,30.8,30.44,NE,45,12.0,19.0,46,0.00,,---,0.00,VWS V14.01,2013-03-06 15:25:00,
2013-03-06 09:30:00,50.9,30.3,30.44,NNE,13,7.0,19.0,45,0.00,,---,0.00,VWS V14.01,2013-03-06 15:30:00,
2013-03-06 09:35:00,51.2,30.0,30.44,NE,47,14.0,19.0,44,0.00,,---,0.00,VWS V14.01,2013-03-06 15:35:00,
2013-03-06 09:40:00,51.3,30.7,30.44,NE,43,10.0,19.0,45,0.00,,---,0.00,VWS V14.01,2013-03-06 15:40:00,
2013-03-06 09:45:00,51.5,31.4,30.44,NNE,18,15.0,19.0,46,0.00,,---,0.00,VWS V14.01,2013-03-06 15:45:00,
2013-03-06 09:50:00,51.7,31.6,30.44,NNE,23,13.0,19.0,46,0.00,,---,0.00,VWS V14.01,2013-03-06 15:50:00,
2013-03-06 09:55:00,52.0,31.9,30.45,NE,53,11.0,19.0,46,0.00,,---,0.00,VWS V14.01,2013-03-06 15:55:00,
2013-03-06 10:00:00,52.2,31.0,30.44,NE,47,13.0,19.0,44,0.00,,---,0.00,VWS V14.01,2013-03-06 16:00:00,
2013-03-06 10:05:00,53.0,30.5,30.44,NE,36,15.0,19.0,42,0.00,,---,0.00,VWS V14.01,2013-03-06 16:05:00,
2013-03-06 10:10:00,53.0,29.3,30.43,ENE,67,15.0,19.0,40,0.00,,---,0.00,VWS V14.01,2013-03-06 16:10:00,
2013-03-06 10:15:00,53.6,31.1,30.44,ENE,58,8.0,19.0,42,0.00,,---,0.00,VWS V14.01,2013-03-06 16:15:00,
2013-03-06 10:20:00,54.0,30.9,30.44,NE,43,13.0,19.0,41,0.00,,---,0.00,VWS V14.01,2013-03-06 16:20:00,
2013-03-06 10:25:00,53.9,30.8,30.44,ENE,57,11.0,19.0,41,0.00,,---,0.00,VWS V14.01,2013-03-06 16:25:00,
2013-03-06 10:30:00,54.2,32.2,30.44,ENE,61,11.0,19.0,43,0.00,,---,0.00,VWS V14.01,2013-03-06 16:30:00,
2013-03-06 10:39:00,54.2,32.2,30.44,NE,40,14.0,19.0,43,0.00,,---,0.00,VWS V14.01,2013-03-06 16:39:00,
2013-03-06 10:45:00,53.7,32.9,30.43,ENE,65,7.0,19.0,45,0.00,,---,0.00,VWS V14.01,2013-03-06 16:45:00,
2013-03-06 10:50:00,53.2,32.4,30.43,NE,56,11.0,19.0,45,0.00,,---,0.00,VWS V14.01,2013-03-06 16:50:00,
2013-03-06 10:55:00,53.8,33.0,30.43,NE,51,9.0,19.0,45,0.00,,---,0.00,VWS V14.01,2013-03-06 16:55:00,
2013-03-06 11:00:00,54.2,33.3,30.43,ENE,57,8.0,19.0,45,0.00,,---,0.00,VWS V14.01,2013-03-06 17:00:00,
2013-03-06 11:05:00,54.6,34.8,30.42,NE,53,12.0,17.0,47,0.00,,---,0.00,VWS V14.01,2013-03-06 17:05:00,
2013-03-06 11:10:00,55.0,35.2,30.42,NE,37,9.0,17.0,47,0.00,,---,0.00,VWS V14.01,2013-03-06 17:10:00,
2013-03-06 11:15:00,55.0,35.2,30.42,NNE,33,12.0,17.0,47,0.00,,---,0.00,VWS V14.01,2013-03-06 17:15:00,
2013-03-06 11:20:00,55.0,35.7,30.42,ENE,75,11.0,17.0,48,0.00,,---,0.00,VWS V14.01,2013-03-06 17:20:00,
2013-03-06 11:25:00,55.1,35.8,30.42,ENE,67,10.0,17.0,48,0.00,,---,0.00,VWS V14.01,2013-03-06 17:25:00,
2013-03-06 11:30:00,54.4,36.2,30.42,ENE,77,5.0,17.0,50,0.00,,---,0.00,VWS V14.01,2013-03-06 17:30:00,
2013-03-06 11:34:00,54.4,36.7,30.41,NNE,33,12.0,17.0,51,0.00,,---,0.00,VWS V14.01,2013-03-06 17:34:00,
2013-03-06 11:39:00,54.4,37.6,30.41,NNE,25,4.0,17.0,53,0.00,,---,0.00,VWS V14.01,2013-03-06 17:39:00,
2013-03-06 11:44:00,54.1,36.4,30.41,NE,36,5.0,17.0,51,0.00,,---,0.00,VWS V14.01,2013-03-06 17:44:00,
2013-03-06 11:49:00,54.5,37.7,30.41,NNE,25,10.0,17.0,53,0.00,,---,0.00,VWS V14.01,2013-03-06 17:49:00,
2013-03-06 11:54:00,54.3,36.6,30.41,NE,49,12.0,17.0,51,0.00,,---,0.00,VWS V14.01,2013-03-06 17:54:00,
2013-03-06 11:59:00,54.2,36.5,30.41,NE,47,11.0,17.0,51,0.00,,---,0.00,VWS V14.01,2013-03-06 17:59:00,
2013-03-06 12:04:00,54.3,37.1,30.40,NNE,32,8.0,13.0,52,0.00,,---,0.00,VWS V14.01,2013-03-06 18:04:00,
2013-03-06 12:09:00,55.2,37.9,30.40,ENE,72,9.0,13.0,52,0.00,,---,0.00,VWS V14.01,2013-03-06 18:09:00,
2013-03-06 12:14:00,54.8,37.0,30.40,NE,53,5.0,14.0,51,0.00,,---,0.00,VWS V14.01,2013-03-06 18:14:00,
2013-03-06 12:19:00,55.2,38.4,30.40,ENE,75,3.0,14.0,53,0.00,,---,0.00,VWS V14.01,2013-03-06 18:19:00,
2013-03-06 12:24:00,55.1,37.8,30.39,NNE,33,3.0,16.0,52,0.00,,---,0.00,VWS V14.01,2013-03-06 18:24:00,
2013-03-06 12:29:00,55.5,38.7,30.39,NE,56,12.0,16.0,53,0.00,,---,0.00,VWS V14.01,2013-03-06 18:29:00,
2013-03-06 12:34:00,56.0,39.1,30.39,NE,45,12.0,16.0,53,0.00,,---,0.00,VWS V14.01,2013-03-06 18:34:00,
2013-03-06 12:39:00,56.2,39.8,30.39,ENE,65,10.0,16.0,54,0.00,,---,0.00,VWS V14.01,2013-03-06 18:39:00,
2013-03-06 12:44:00,56.2,37.8,30.38,NE,51,6.0,16.0,50,0.00,,---,0.00,VWS V14.01,2013-03-06 18:44:00,
2013-03-06 12:49:00,56.8,37.9,30.38,ENE,61,9.0,16.0,49,0.00,,---,0.00,VWS V14.01,2013-03-06 18:49:00,
2013-03-06 12:54:00,56.5,36.5,30.38,North,6,6.0,16.0,47,0.00,,---,0.00,VWS V14.01,2013-03-06 18:54:00,
2013-03-06 12:59:00,55.8,35.3,30.37,NE,53,0.0,16.0,46,0.00,,---,0.00,VWS V14.01,2013-03-06 18:59:00,
2013-03-06 13:04:00,55.9,34.3,30.37,NNE,22,3.0,7.0,44,0.00,,---,0.00,VWS V14.01,2013-03-06 19:04:00,
2013-03-06 13:09:00,55.9,34.9,30.37,NNE,21,4.0,10.0,45,0.00,,---,0.00,VWS V14.01,2013-03-06 19:09:00,
2013-03-06 13:14:00,55.9,34.3,30.36,East,82,4.0,12.0,44,0.00,,---,0.00,VWS V14.01,2013-03-06 19:14:00,
2013-03-06 13:19:00,55.8,33.7,30.36,NE,45,5.0,12.0,43,0.00,,---,0.00,VWS V14.01,2013-03-06 19:19:00,
2013-03-06 13:24:00,56.0,33.8,30.36,NE,46,4.0,12.0,43,0.00,,---,0.00,VWS V14.01,2013-03-06 19:24:00,
2013-03-06 13:29:00,56.5,34.3,30.35,NNE,29,2.0,12.0,43,0.00,,---,0.00,VWS V14.01,2013-03-06 19:29:00,
2013-03-06 13:34:00,56.4,34.2,30.35,ENE,69,5.0,12.0,43,0.00,,---,0.00,VWS V14.01,2013-03-06 19:34:00,
2013-03-06 13:39:00,57.0,34.8,30.35,ESE,103,7.0,12.0,43,0.00,,---,0.00,VWS V14.01,2013-03-06 19:39:00,
2013-03-06 13:44:00,57.2,34.9,30.35,ENE,73,7.0,12.0,43,0.00,,---,0.00,VWS V14.01,2013-03-06 19:44:00,
2013-03-06 13:49:00,57.2,34.3,30.35,NE,56,6.0,12.0,42,0.00,,---,0.00,VWS V14.01,2013-03-06 19:49:00,
2013-03-06 13:54:00,57.5,35.2,30.35,East,90,3.0,12.0,43,0.00,,---,0.00,VWS V14.01,2013-03-06 19:54:00,
2013-03-06 13:59:00,57.8,34.9,30.35,NE,47,5.0,12.0,42,0.00,,---,0.00,VWS V14.01,2013-03-06 19:59:00,
2013-03-06 14:04:00,57.7,33.6,30.34,ENE,65,3.0,7.0,40,0.00,,---,0.00,VWS V14.01,2013-03-06 20:04:00,
2013-03-06 14:09:00,57.8,31.7,30.34,NNE,12,2.0,9.0,37,0.00,,---,0.00,VWS V14.01,2013-03-06 20:09:00,
2013-03-06 14:14:00,57.9,33.8,30.34,ESE,105,5.0,9.0,40,0.00,,---,0.00,VWS V14.01,2013-03-06 20:14:00,
2013-03-06 14:19:00,58.0,35.1,30.33,East,97,7.0,9.0,42,0.00,,---,0.00,VWS V14.01,2013-03-06 20:19:00,
2013-03-06 14:24:00,58.4,34.8,30.33,ENE,60,6.0,9.0,41,0.00,,---,0.00,VWS V14.01,2013-03-06 20:24:00,
2013-03-06 14:29:00,58.6,34.4,30.32,ESE,105,5.0,9.0,40,0.00,,---,0.00,VWS V14.01,2013-03-06 20:29:00,
2013-03-06 14:34:00,58.6,35.0,30.32,ESE,107,8.0,9.0,41,0.00,,---,0.00,VWS V14.01,2013-03-06 20:34:00,
2013-03-06 14:39:00,58.8,35.2,30.32,East,85,5.0,9.0,41,0.00,,---,0.00,VWS V14.01,2013-03-06 20:39:00,
2013-03-06 14:44:00,58.8,33.9,30.32,ENE,64,4.0,9.0,39,0.00,,---,0.00,VWS V14.01,2013-03-06 20:44:00,
2013-03-06 14:49:00,58.6,35.0,30.31,ENE,67,5.0,9.0,41,0.00,,---,0.00,VWS V14.01,2013-03-06 20:49:00,
2013-03-06 14:54:00,58.5,38.9,30.31,SE,126,5.0,9.0,48,0.00,,---,0.00,VWS V14.01,2013-03-06 20:54:00,
2013-03-06 14:59:00,58.3,39.8,30.31,ESE,116,4.0,9.0,50,0.00,,---,0.00,VWS V14.01,2013-03-06 20:59:00,
2013-03-06 15:04:00,58.0,37.9,30.31,SE,145,3.0,7.0,47,0.00,,---,0.00,VWS V14.01,2013-03-06 21:04:00,
2013-03-06 15:09:00,58.1,39.6,30.31,SSE,156,4.0,7.0,50,0.00,,---,0.00,VWS V14.01,2013-03-06 21:09:00,
2013-03-06 15:14:00,58.2,39.2,30.31,SSE,159,4.0,7.0,49,0.00,,---,0.00,VWS V14.01,2013-03-06 21:14:00,
2013-03-06 15:19:00,58.1,39.1,30.30,ENE,77,2.0,7.0,49,0.00,,---,0.00,VWS V14.01,2013-03-06 21:19:00,
2013-03-06 15:24:00,58.2,40.2,30.30,ENE,68,4.0,7.0,51,0.00,,---,0.00,VWS V14.01,2013-03-06 21:24:00,
2013-03-06 15:29:00,58.2,39.7,30.30,ESE,120,4.0,10.0,50,0.00,,---,0.00,VWS V14.01,2013-03-06 21:29:00,
2013-03-06 15:34:00,58.0,39.5,30.30,East,93,3.0,10.0,50,0.00,,---,0.00,VWS V14.01,2013-03-06 21:34:00,
2013-03-06 15:39:00,57.9,39.9,30.30,ESE,105,6.0,10.0,51,0.00,,---,0.00,VWS V14.01,2013-03-06 21:39:00,
2013-03-06 15:44:00,58.1,41.6,30.30,SE,133,6.0,10.0,54,0.00,,---,0.00,VWS V14.01,2013-03-06 21:44:00,
2013-03-06 15:49:00,58.2,41.2,30.29,ESE,115,3.0,10.0,53,0.00,,---,0.00,VWS V14.01,2013-03-06 21:49:00,
2013-03-06 15:54:00,58.4,40.4,30.29,East,89,6.0,10.0,51,0.00,,---,0.00,VWS V14.01,2013-03-06 21:54:00,
2013-03-06 15:59:00,58.8,40.7,30.29,East,96,6.0,10.0,51,0.00,,---,0.00,VWS V14.01,2013-03-06 21:59:00,
2013-03-06 16:04:00,58.5,40.5,30.29,ESE,108,7.0,7.0,51,0.00,,---,0.00,VWS V14.01,2013-03-06 22:04:00,
2013-03-06 16:09:00,57.7,40.7,30.28,ESE,111,4.0,8.0,53,0.00,,---,0.00,VWS V14.01,2013-03-06 22:09:00,
2013-03-06 16:14:00,57.6,42.0,30.28,East,101,4.0,8.0,56,0.00,,---,0.00,VWS V14.01,2013-03-06 22:14:00,
2013-03-06 16:19:00,57.4,41.8,30.28,East,100,2.0,8.0,56,0.00,,---,0.00,VWS V14.01,2013-03-06 22:19:00,
2013-03-06 16:24:00,57.0,41.5,30.28,SE,126,6.0,8.0,56,0.00,,---,0.00,VWS V14.01,2013-03-06 22:24:00,
2013-03-06 16:29:00,56.8,42.2,30.28,ESE,112,4.0,9.0,58,0.00,,---,0.00,VWS V14.01,2013-03-06 22:29:00,
2013-03-06 16:34:00,56.7,41.7,30.28,SSE,157,2.0,9.0,57,0.00,,---,0.00,VWS V14.01,2013-03-06 22:34:00,
2013-03-06 16:39:00,56.7,41.7,30.27,SE,132,6.0,9.0,57,0.00,,---,0.00,VWS V14.01,2013-03-06 22:39:00,
2013-03-06 16:44:00,56.8,42.2,30.27,ESE,108,7.0,9.0,58,0.00,,---,0.00,VWS V14.01,2013-03-06 22:44:00,
2013-03-06 16:49:00,56.8,43.1,30.27,ESE,119,8.0,9.0,60,0.00,,---,0.00,VWS V14.01,2013-03-06 22:49:00,
2013-03-06 16:54:00,56.7,42.1,30.27,ESE,120,8.0,11.0,58,0.00,,---,0.00,VWS V14.01,2013-03-06 22:54:00,
2013-03-06 16:59:00,57.1,42.5,30.27,SE,141,8.0,11.0,58,0.00,,---,0.00,VWS V14.01,2013-03-06 22:59:00,
2013-03-06 17:04:00,58.0,43.8,30.27,South,179,5.0,7.0,59,0.00,,---,0.00,VWS V14.01,2013-03-06 23:04:00,
2013-03-06 17:09:00,58.8,44.1,30.27,ESE,116,7.0,9.0,58,0.00,,---,0.00,VWS V14.01,2013-03-06 23:09:00,
2013-03-06 17:14:00,58.6,43.9,30.26,East,96,3.0,9.0,58,0.00,,---,0.00,VWS V14.01,2013-03-06 23:14:00,
2013-03-06 17:19:00,58.6,43.4,30.27,ESE,106,4.0,10.0,57,0.00,,---,0.00,VWS V14.01,2013-03-06 23:19:00,
2013-03-06 17:24:00,58.5,43.8,30.27,SSE,162,2.0,11.0,58,0.00,,---,0.00,VWS V14.01,2013-03-06 23:24:00,
2013-03-06 17:29:00,58.2,43.5,30.27,SE,132,4.0,11.0,58,0.00,,---,0.00,VWS V14.01,2013-03-06 23:29:00,
2013-03-06 17:34:00,58.0,44.2,30.27,SE,136,6.0,11.0,60,0.00,,---,0.00,VWS V14.01,2013-03-06 23:34:00,
2013-03-06 17:39:00,57.9,44.1,30.27,SE,133,4.0,11.0,60,0.00,,---,0.00,VWS V14.01,2013-03-06 23:39:00,
2013-03-06 17:44:00,57.8,44.0,30.26,ESE,122,6.0,11.0,60,0.00,,---,0.00,VWS V14.01,2013-03-06 23:44:00,
2013-03-06 17:49:00,57.5,44.2,30.26,ESE,113,9.0,11.0,61,0.00,,---,0.00,VWS V14.01,2013-03-06 23:49:00,
2013-03-06 17:54:00,57.3,44.4,30.26,ESE,113,4.0,11.0,62,0.00,,---,0.00,VWS V14.01,2013-03-06 23:54:00,
2013-03-06 17:59:00,56.9,44.5,30.26,SE,132,3.0,11.0,63,0.00,,---,0.00,VWS V14.01,2013-03-06 23:59:00,
2013-03-06 18:04:00,56.6,44.6,30.26,SE,142,3.0,6.0,64,0.00,,---,0.00,VWS V14.01,2013-03-07 00:04:00,
2013-03-06 18:09:00,56.3,44.7,30.26,East,89,3.0,8.0,65,0.00,,---,0.00,VWS V14.01,2013-03-07 00:09:00,
2013-03-06 18:14:00,56.1,44.5,30.27,SE,129,3.0,8.0,65,0.00,,---,0.00,VWS V14.01,2013-03-07 00:14:00,
2013-03-06 18:19:00,56.0,45.2,30.26,ESE,122,1.0,8.0,67,0.00,,---,0.00,VWS V14.01,2013-03-07 00:19:00,
2013-03-06 18:24:00,55.8,45.0,30.26,ESE,120,5.0,8.0,67,0.00,,---,0.00,VWS V14.01,2013-03-07 00:24:00,
2013-03-06 18:29:00,55.7,44.9,30.27,SSE,148,3.0,8.0,67,0.00,,---,0.00,VWS V14.01,2013-03-07 00:29:00,
2013-03-06 18:34:00,55.6,45.2,30.26,SE,128,2.0,8.0,68,0.00,,---,0.00,VWS V14.01,2013-03-07 00:34:00,
2013-03-06 18:39:00,55.5,45.5,30.27,ESE,121,2.0,8.0,69,0.00,,---,0.00,VWS V14.01,2013-03-07 00:39:00,
2013-03-06 18:44:00,55.5,45.5,30.26,SE,127,3.0,8.0,69,0.00,,---,0.00,VWS V14.01,2013-03-07 00:44:00,
2013-03-06 18:49:00,55.6,46.0,30.26,East,101,4.0,8.0,70,0.00,,---,0.00,VWS V14.01,2013-03-07 00:49:00,
2013-03-06 18:54:00,55.6,46.0,30.26,SSE,151,3.0,8.0,70,0.00,,---,0.00,VWS V14.01,2013-03-07 00:54:00,
2013-03-06 18:59:00,55.7,45.7,30.26,ESE,109,4.0,8.0,69,0.00,,---,0.00,VWS V14.01,2013-03-07 00:59:00,
2013-03-06 19:04:00,55.7,45.7,30.27,South,174,2.0,4.0,69,0.00,,---,0.00,VWS V14.01,2013-03-07 01:04:00,
2013-03-06 19:09:00,55.7,45.7,30.27,SE,124,9.0,9.0,69,0.00,,---,0.00,VWS V14.01,2013-03-07 01:09:00,
2013-03-06 19:14:00,55.8,45.8,30.26,SSE,162,2.0,9.0,69,0.00,,---,0.00,VWS V14.01,2013-03-07 01:14:00,
2013-03-06 19:19:00,55.9,45.9,30.26,South,191,4.0,9.0,69,0.00,,---,0.00,VWS V14.01,2013-03-07 01:19:00,
2013-03-06 19:24:00,56.0,45.6,30.27,SSE,149,4.0,9.0,68,0.00,,---,0.00,VWS V14.01,2013-03-07 01:24:00,
2013-03-06 19:29:00,56.0,46.0,30.27,SE,143,4.0,9.0,69,0.00,,---,0.00,VWS V14.01,2013-03-07 01:29:00,
2013-03-06 19:34:00,56.1,46.1,30.27,SSE,148,1.0,9.0,69,0.00,,---,0.00,VWS V14.01,2013-03-07 01:34:00,
2013-03-06 19:39:00,56.1,46.1,30.27,SSE,168,5.0,9.0,69,0.00,,---,0.00,VWS V14.01,2013-03-07 01:39:00,
2013-03-06 19:44:00,56.1,45.3,30.27,ESE,121,3.0,9.0,67,0.00,,---,0.00,VWS V14.01,2013-03-07 01:44:00,
2013-03-06 19:49:00,56.1,45.7,30.27,SSE,153,0.0,9.0,68,0.00,,---,0.00,VWS V14.01,2013-03-07 01:49:00,
2013-03-06 19:54:00,56.1,45.7,30.27,ESE,116,3.0,9.0,68,0.00,,---,0.00,VWS V14.01,2013-03-07 01:54:00,
2013-03-06 19:59:00,56.1,45.7,30.27,ESE,114,3.0,9.0,68,0.00,,---,0.00,VWS V14.01,2013-03-07 01:59:00,
2013-03-06 20:04:00,56.2,45.8,30.27,ESE,112,6.0,6.0,68,0.00,,---,0.00,VWS V14.01,2013-03-07 02:04:00,
2013-03-06 20:09:00,56.3,45.9,30.27,SE,131,3.0,7.0,68,0.00,,---,0.00,VWS V14.01,2013-03-07 02:09:00,
2013-03-06 20:14:00,56.3,45.9,30.27,ESE,117,1.0,7.0,68,0.00,,---,0.00,VWS V14.01,2013-03-07 02:14:00,
2013-03-06 20:19:00,56.2,46.2,30.27,SE,124,4.0,7.0,69,0.00,,---,0.00,VWS V14.01,2013-03-07 02:19:00,
2013-03-06 20:24:00,56.2,46.2,30.27,ESE,122,2.0,7.0,69,0.00,,---,0.00,VWS V14.01,2013-03-07 02:24:00,
2013-03-06 20:29:00,56.2,46.2,30.27,ESE,117,2.0,7.0,69,0.00,,---,0.00,VWS V14.01,2013-03-07 02:29:00,
2013-03-06 20:34:00,56.1,46.5,30.27,ESE,123,2.0,7.0,70,0.00,,---,0.00,VWS V14.01,2013-03-07 02:34:00,
2013-03-06 20:39:00,56.2,46.9,30.27,SSE,156,1.0,7.0,71,0.00,,---,0.00,VWS V14.01,2013-03-07 02:39:00,
2013-03-06 20:44:00,56.2,46.6,30.27,ESE,120,6.0,7.0,70,0.00,,---,0.00,VWS V14.01,2013-03-07 02:44:00,
2013-03-06 20:49:00,56.3,46.7,30.27,ESE,120,1.0,7.0,70,0.00,,---,0.00,VWS V14.01,2013-03-07 02:49:00,
2013-03-06 20:54:00,56.3,46.7,30.27,ESE,120,4.0,7.0,70,0.00,,---,0.00,VWS V14.01,2013-03-07 02:54:00,
2013-03-06 20:59:00,56.3,47.0,30.27,SSE,148,4.0,7.0,71,0.00,,---,0.00,VWS V14.01,2013-03-07 02:59:00,
2013-03-06 21:04:00,56.3,47.0,30.27,East,100,5.0,5.0,71,0.00,,---,0.00,VWS V14.01,2013-03-07 03:04:00,
2013-03-06 21:09:00,56.4,47.1,30.27,ESE,122,5.0,6.0,71,0.00,,---,0.00,VWS V14.01,2013-03-07 03:09:00,
2013-03-06 21:14:00,56.4,47.1,30.27,SE,145,2.0,6.0,71,0.00,,---,0.00,VWS V14.01,2013-03-07 03:14:00,
2013-03-06 21:19:00,56.4,47.1,30.28,ESE,117,1.0,6.0,71,0.00,,---,0.00,VWS V14.01,2013-03-07 03:19:00,
2013-03-06 21:24:00,56.5,47.2,30.28,SSE,151,2.0,6.0,71,0.00,,---,0.00,VWS V14.01,2013-03-07 03:24:00,
2013-03-06 21:29:00,56.5,47.2,30.28,SE,139,1.0,6.0,71,0.00,,---,0.00,VWS V14.01,2013-03-07 03:29:00,
2013-03-06 21:34:00,56.5,47.6,30.28,SE,125,0.0,6.0,72,0.00,,---,0.00,VWS V14.01,2013-03-07 03:34:00,
2013-03-06 21:39:00,56.4,47.9,30.28,SSE,147,0.0,6.0,73,0.00,,---,0.00,VWS V14.01,2013-03-07 03:39:00,
2013-03-06 21:44:00,56.4,47.9,30.28,SSE,153,1.0,6.0,73,0.00,,---,0.00,VWS V14.01,2013-03-07 03:44:00,
2013-03-06 21:49:00,56.4,47.9,30.29,SSE,160,2.0,6.0,73,0.00,,---,0.00,VWS V14.01,2013-03-07 03:49:00,
2013-03-06 21:54:00,56.5,48.3,30.30,South,184,1.0,6.0,74,0.00,,---,0.00,VWS V14.01,2013-03-07 03:54:00,
2013-03-06 21:59:00,56.6,48.4,30.28,ESE,121,2.0,6.0,74,0.00,,---,0.00,VWS V14.01,2013-03-07 03:59:00,
2013-03-06 22:04:00,56.5,48.0,30.29,SSE,167,2.0,3.0,73,0.00,,---,0.00,VWS V14.01,2013-03-07 04:04:00,
2013-03-06 22:09:00,56.5,48.0,30.29,SE,136,3.0,4.0,73,0.00,,---,0.00,VWS V14.01,2013-03-07 04:09:00,
2013-03-06 22:14:00,56.5,48.3,30.29,SSE,154,1.0,4.0,74,0.00,,---,0.00,VWS V14.01,2013-03-07 04:14:00,
2013-03-06 22:19:00,56.5,48.7,30.29,SSE,153,2.0,4.0,75,0.00,,---,0.00,VWS V14.01,2013-03-07 04:19:00,
2013-03-06 22:24:00,56.4,48.6,30.28,SE,143,1.0,4.0,75,0.00,,---,0.00,VWS V14.01,2013-03-07 04:24:00,
2013-03-06 22:29:00,56.3,48.8,30.28,SSE,160,2.0,5.0,76,0.00,,---,0.00,VWS V14.01,2013-03-07 04:29:00,
2013-03-06 22:34:00,56.3,49.2,30.28,ESE,119,3.0,5.0,77,0.00,,---,0.00,VWS V14.01,2013-03-07 04:34:00,
2013-03-06 22:39:00,56.3,49.2,30.28,SE,133,1.0,5.0,77,0.00,,---,0.00,VWS V14.01,2013-03-07 04:39:00,
2013-03-06 22:44:00,56.3,49.5,30.28,SSE,165,2.0,5.0,78,0.00,,---,0.00,VWS V14.01,2013-03-07 04:44:00,
2013-03-06 22:49:00,56.4,49.6,30.28,SE,139,3.0,5.0,78,0.00,,---,0.00,VWS V14.01,2013-03-07 04:49:00,
2013-03-06 22:54:00,56.4,49.6,30.27,SE,136,3.0,5.0,78,0.00,,---,0.00,VWS V14.01,2013-03-07 04:54:00,
2013-03-06 22:59:00,56.3,49.5,30.27,SE,146,1.0,5.0,78,0.00,,---,0.00,VWS V14.01,2013-03-07 04:59:00,
2013-03-06 23:00:00,56.4,49.6,30.27,SE,145,2.0,5.0,78,0.00,,---,0.00,VWS V14.01,2013-03-07 05:00:00,
2013-03-06 23:05:00,56.5,49.7,30.27,SSE,147,0.0,4.0,78,0.00,,---,0.00,VWS V14.01,2013-03-07 05:05:00,
2013-03-06 23:10:00,56.5,49.7,30.27,SSE,147,2.0,5.0,78,0.00,,---,0.00,VWS V14.01,2013-03-07 05:10:00,
2013-03-06 23:15:00,56.5,49.7,30.27,SE,145,4.0,5.0,78,0.00,,---,0.00,VWS V14.01,2013-03-07 05:15:00,
2013-03-06 23:20:00,56.5,49.7,30.27,SE,136,3.0,5.0,78,0.00,,---,0.00,VWS V14.01,2013-03-07 05:20:00,
2013-03-06 23:25:00,56.6,49.8,30.27,SSE,149,2.0,5.0,78,0.00,,---,0.00,VWS V14.01,2013-03-07 05:25:00,
2013-03-06 23:30:00,56.6,49.8,30.27,SSE,161,0.0,5.0,78,0.00,,---,0.00,VWS V14.01,2013-03-07 05:30:00,
2013-03-06 23:35:00,56.4,50.0,30.27,SSE,150,3.0,5.0,79,0.00,,---,0.00,VWS V14.01,2013-03-07 05:35:00,
2013-03-06 23:40:00,56.5,50.1,30.27,South,188,2.0,5.0,79,0.00,,---,0.00,VWS V14.01,2013-03-07 05:40:00,
2013-03-06 23:45:00,56.6,50.2,30.27,SSE,150,3.0,5.0,79,0.00,,---,0.00,VWS V14.01,2013-03-07 05:45:00,
2013-03-06 23:50:00,56.7,50.3,30.26,ESE,121,3.0,5.0,79,0.00,,---,0.00,VWS V14.01,2013-03-07 05:50:00,
2013-03-06 23:55:00,56.7,50.3,30.26,SSE,154,2.0,5.0,79,0.00,,---,0.00,VWS V14.01,2013-03-07 05:55:00,